Platteville, WI

6:03 PM CDT on May 22, 2017 (GMT -0500)
Platteville Municipal

Weather History for KPVB - December, 2012

Change the Weather History Date:

Sunday, December 30, 2012

  Actual Average (KDBQ) Record (KDBQ)
Temperature  
Mean Temperature 16 °F -  
Max Temperature 32 °F 26 °F 56 °F (1965)
Min Temperature 1 °F 10 °F -16 °F (1968)
Degree Days  
Heating Degree Days 48    
Moisture  
Dew Point 10 °F    
Average Humidity 82    
Maximum Humidity 93    
Minimum Humidity 69    
Precipitation  
Precipitation 0.00 in - - ()
Sea Level Pressure  
Sea Level Pressure 30.16 in    
Wind  
Wind Speed 6 mph (South)    
Max Wind Speed 18 mph    
Max Gust Speed -    
Averages and records for this station are not official NWS values.
T = Trace of Precipitation, MM = Missing Value Source: NWS Daily Summary

Daily Weather History Graph

Daily Weather History Graph

Search for Another Location

Airport or City:

Trip Planner

Search our weather history database for the weather conditions in past years. The results will help you decide how hot, cold, wet, or windy it might be!

Date:

Astronomy

Dec. 30, 2012 Rise Set
Actual Time 7:31 AM CST 4:37 PM CST
Civil Twilight 6:59 AM CST 5:09 PM CST
Nautical Twilight 6:24 AM CST 5:45 PM CST
Astronomical Twilight 5:49 AM CST 6:19 PM CST
Moon 7:12 PM CST (12/30) 8:37 AM CST (12/30)
Length of Visible Light 10h 09m
Length of Day
9h 05m
Waning Gibbous, 95% of the Moon is Illuminated
Dec 30
Waning Gibbous
Jan 4
Last Quarter
Jan 11
New
Jan 18
First Quarter
Jan 26
Full

Hourly Weather History & Observations

Time (CST) Temp. Windchill Dew Point Humidity Pressure Visibility Wind Dir Wind Speed Gust Speed Precip Events Conditions
12:15 AM 6.8 °F -5.9 °F 3.2 °F 85% 30.19 in - SW 8.1 mph - N/A   Unknown
12:35 AM 6.8 °F -4.8 °F 3.2 °F 85% 30.19 in - SW 6.9 mph - N/A   Unknown
12:55 AM 6.8 °F -3.5 °F 3.2 °F 85% 30.19 in - SW 5.8 mph - N/A   Unknown
1:15 AM 6.8 °F -3.5 °F 3.2 °F 85% 30.19 in - SW 5.8 mph - N/A   Unknown
1:35 AM 6.8 °F -2.0 °F 3.2 °F 85% 30.20 in - SW 4.6 mph - N/A   Unknown
1:55 AM 5.0 °F -5.6 °F 3.2 °F 92% 30.21 in - WSW 5.8 mph - N/A   Unknown
2:15 AM 5.0 °F -6.9 °F 3.2 °F 92% 30.22 in - WSW 6.9 mph - N/A   Unknown
2:35 AM 6.8 °F -3.5 °F 3.2 °F 85% 30.22 in - West 5.8 mph - N/A   Unknown
2:55 AM 5.0 °F -5.6 °F 1.4 °F 85% 30.23 in - WSW 5.8 mph - N/A   Unknown
3:15 AM 5.0 °F -4.1 °F 1.4 °F 85% 30.23 in - West 4.6 mph - N/A   Unknown
3:35 AM 5.0 °F -2.1 °F 1.4 °F 85% 30.23 in - WNW 3.5 mph - N/A   Unknown
3:55 AM 5.0 °F - 1.4 °F 85% 30.24 in - Calm Calm - N/A   Mostly Cloudy
4:15 AM 5.0 °F - 1.4 °F 85% 30.23 in - Calm Calm - N/A   Overcast
4:35 AM 5.0 °F - 1.4 °F 85% 30.23 in - Calm Calm - N/A   Overcast
4:55 AM 3.2 °F - -0.4 °F 85% 30.23 in - Calm Calm - N/A   Overcast
5:15 AM 3.2 °F - -0.4 °F 85% 30.24 in - Calm Calm - N/A   Overcast
5:35 AM 3.2 °F - -0.4 °F 85% 30.23 in - Calm Calm - N/A   Overcast
5:55 AM 3.2 °F - -2.2 °F 78% 30.25 in - Calm Calm - N/A   Overcast
6:15 AM 3.2 °F - -0.4 °F 85% 30.24 in - Calm Calm - N/A   Overcast
6:55 AM 3.2 °F - -0.4 °F 85% 30.26 in - Calm Calm - N/A   Unknown
7:15 AM 1.4 °F - -2.2 °F 85% 30.27 in - Calm Calm - N/A   Unknown
7:35 AM 3.2 °F - -0.4 °F 85% 30.26 in - Calm Calm - N/A   Unknown
7:55 AM 5.0 °F - 1.4 °F 85% 30.26 in - Calm Calm - N/A   Unknown
8:15 AM 3.2 °F -4.2 °F -0.4 °F 85% 30.28 in - SSW 3.5 mph - N/A   Unknown
8:35 AM 5.0 °F - 1.4 °F 85% 30.26 in - Calm Calm - N/A   Unknown
8:55 AM 5.0 °F - 1.4 °F 85% 30.26 in - Calm Calm - N/A   Unknown
9:15 AM 6.8 °F - 3.2 °F 85% 30.26 in - Calm Calm - N/A   Unknown
9:35 AM 8.6 °F - 5.0 °F 85% 30.27 in - Calm Calm - N/A   Unknown
9:55 AM 8.6 °F 2.0 °F 5.0 °F 85% 30.27 in - South 3.5 mph - N/A   Unknown
10:15 AM 10.4 °F 4.0 °F 6.8 °F 85% 30.27 in - South 3.5 mph - N/A   Unknown
10:35 AM 10.4 °F 2.2 °F 6.8 °F 85% 30.27 in - South 4.6 mph - N/A   Unknown
10:55 AM 10.4 °F 0.8 °F 6.8 °F 85% 30.26 in - South 5.8 mph - N/A   Unknown
11:15 AM 12.2 °F 1.7 °F 8.6 °F 85% 30.25 in - South 6.9 mph - N/A   Unknown
11:35 AM 12.2 °F 0.7 °F 8.6 °F 85% 30.25 in - South 8.1 mph - N/A   Unknown
11:55 AM 12.2 °F 0.7 °F 10.4 °F 92% 30.25 in - South 8.1 mph - N/A   Unknown
12:15 PM 14.0 °F 2.0 °F 10.4 °F 86% 30.24 in - South 9.2 mph - N/A   Unknown
12:35 PM 14.0 °F 6.5 °F 12.2 °F 93% 30.21 in - South 4.6 mph - N/A   Unknown
12:55 PM 15.8 °F 7.2 °F 12.2 °F 86% 30.21 in - South 5.8 mph - N/A   Unknown
1:15 PM 17.6 °F 8.2 °F 12.2 °F 79% 30.19 in - SSE 6.9 mph - N/A   Unknown
1:35 PM 17.6 °F 7.3 °F 12.2 °F 79% 30.18 in - SE 8.1 mph - N/A   Clear
1:55 PM 17.6 °F 8.2 °F 12.2 °F 79% 30.16 in - SSE 6.9 mph - N/A   Clear
2:15 PM 19.4 °F 11.5 °F 12.2 °F 74% 30.16 in - SSE 5.8 mph - N/A   Clear
3:15 PM 21.2 °F 10.1 °F 14.0 °F 74% 30.14 in - SSE 10.4 mph - N/A   Clear
3:35 PM 21.2 °F 10.1 °F 14.0 °F 74% 30.13 in - SE 10.4 mph - N/A   Clear
3:55 PM 21.2 °F 10.9 °F 15.8 °F 80% 30.13 in - SSE 9.2 mph - N/A   Clear
4:15 PM 21.2 °F 12.6 °F 15.8 °F 80% 30.12 in - SSE 6.9 mph - N/A   Clear
4:35 PM 21.2 °F 13.6 °F 15.8 °F 80% 30.12 in - SSE 5.8 mph - N/A   Clear
4:55 PM 21.2 °F 10.1 °F 15.8 °F 80% 30.11 in - SSE 10.4 mph - N/A   Clear
5:15 PM 21.2 °F 10.1 °F 15.8 °F 80% 30.09 in - SSE 10.4 mph - N/A   Clear
5:55 PM 21.2 °F 11.7 °F 15.8 °F 80% 30.07 in - SSE 8.1 mph - N/A   Clear
6:15 PM 21.2 °F 10.9 °F 17.6 °F 86% 30.06 in - SE 9.2 mph - N/A   Clear
6:55 PM 23.0 °F 14.7 °F 19.4 °F 86% 30.06 in - South 6.9 mph - N/A   Unknown
7:15 PM 26.6 °F 17.5 °F 21.2 °F 80% 30.06 in - South 9.2 mph - N/A   Clear
7:35 PM 26.6 °F 17.5 °F 21.2 °F 80% 30.05 in - South 9.2 mph - N/A   Clear
7:55 PM 26.6 °F 18.2 °F 21.2 °F 80% 30.04 in - SSE 8.1 mph - N/A   Clear
8:15 PM 28.4 °F 20.4 °F 21.2 °F 74% 30.02 in - SSE 8.1 mph - N/A   Clear
8:35 PM 28.4 °F 16.6 °F 23.0 °F 80% 30.01 in - South 16.1 mph - N/A   Clear
8:55 PM 30.2 °F 18.9 °F 23.0 °F 75% 30.01 in - South 16.1 mph - N/A   Clear
9:15 PM 30.2 °F 19.8 °F 23.0 °F 75% 30.00 in - South 13.8 mph - N/A   Clear
9:35 PM 30.2 °F 19.3 °F 23.0 °F 75% 29.99 in - South 15.0 mph - N/A   Clear
9:55 PM 30.2 °F 19.8 °F 23.0 °F 75% 29.98 in - South 13.8 mph - N/A   Clear
10:15 PM 30.2 °F 19.8 °F 23.0 °F 75% 29.98 in - SSW 13.8 mph - N/A   Clear
10:35 PM 32.0 °F 22.1 °F 23.0 °F 69% 29.99 in - SSW 13.8 mph - N/A   Clear
10:55 PM 32.0 °F 22.5 °F 23.0 °F 69% 29.97 in - SSW 12.7 mph - N/A   Clear
11:15 PM 32.0 °F 22.5 °F 23.0 °F 69% 29.97 in - SSW 12.7 mph - N/A   Clear
11:35 PM 32.0 °F 20.8 °F 23.0 °F 69% 29.96 in - SSW 17.3 mph - N/A   Clear
11:55 PM 32.0 °F 20.5 °F 24.8 °F 75% 29.97 in - SW 18.4 mph - N/A   Clear